GFSSW_850_rhum_102.txt.gz
RH
79 53 49 50 52 56 57 48 46 32 26 25 24 21 16 23 27 31 29 24 24 22 25 31 31 29 27 24 24 24 40 41 28 24 27 17 16 17 16 15 16 17 18 22 29
94 76 53 48 50 52 57 64 62 38 29 25 24 20 17 26 29 28 26 24 26 22 23 25 28 26 23 24 23 26 39 32 20 14 17 18 16 16 16 16 19 22 20 23 32
97 82 72 49 42 47 50 62 63 51 32 26 25 21 18 29 31 25 26 24 26 23 20 28 28 23 20 20 24 28 31 26 21 18 17 17 17 16 17 19 15 16 21 30 40
100 87 79 70 47 40 48 52 59 58 37 30 26 22 18 31 35 28 27 23 26 22 22 31 24 20 21 22 22 24 23 22 17 20 20 19 17 18 18 15 14 16 20 27 33
99 96 85 76 65 47 45 55 57 56 45 32 29 24 20 34 29 26 26 23 26 21 20 28 22 21 23 22 21 24 20 20 18 18 20 19 19 20 17 15 17 18 20 22 23
92 97 94 83 74 66 52 56 60 60 37 37 32 26 22 44 21 28 27 25 25 22 18 25 21 21 22 22 22 20 20 20 19 18 19 21 20 20 17 16 18 20 20 21 22
95 95 98 91 84 77 65 60 64 63 40 39 34 27 28 16 21 29 30 28 27 24 18 22 22 21 22 24 23 21 24 25 22 22 21 19 22 25 16 18 20 22 23 24 24
89 96 100 97 95 75 65 66 67 66 46 41 36 28 29 15 13 33 34 29 28 24 20 23 22 22 22 23 27 26 26 29 19 22 21 19 21 19 16 19 21 23 25 26 26
100 97 99 100 96 78 71 70 75 66 52 44 34 31 29 18 15 18 31 28 31 26 25 23 22 24 24 34 38 36 33 27 25 23 25 22 24 18 21 21 23 24 25 26 27
100 100 98 99 100 93 93 79 83 73 58 42 38 42 22 21 19 15 27 28 31 30 25 24 24 35 37 38 46 33 32 29 29 23 25 26 30 26 20 23 22 24 26 27 27
100 100 100 100 100 100 100 100 81 56 53 30 27 24 25 27 25 25 23 29 30 26 33 28 36 42 34 32 32 28 32 38 32 22 22 28 30 27 21 23 25 23 25 28 28
96 100 100 98 100 100 100 99 56 38 40 34 29 30 25 28 26 28 30 32 28 36 34 37 44 32 29 33 34 37 39 36 29 24 24 28 29 26 24 24 21 21 22 25 30
84 99 100 100 100 100 98 83 54 36 43 33 29 27 26 26 30 27 29 31 31 38 41 43 34 32 33 38 39 37 34 35 34 25 26 30 34 27 24 25 21 21 20 22 25
86 78 99 100 100 100 99 84 53 39 41 41 38 29 30 27 32 26 28 30 33 39 42 39 31 35 39 39 38 45 31 28 25 28 36 27 43 30 24 29 31 27 26 23 27
80 84 88 100 100 100 97 89 60 47 95 50 40 29 23 27 28 29 25 30 38 38 40 42 38 39 38 37 33 39 26 26 26 30 36 36 42 32 29 29 28 32 31 27 27
78 84 86 99 100 97 94 80 72 83 94 53 42 40 43 33 33 33 29 30 29 36 35 37 32 36 37 33 27 28 30 37 47 44 50 36 40 34 24 23 26 32 31 30 31
75 80 90 100 99 98 95 82 94 96 42 50 55 43 42 47 42 36 39 40 45 52 52 37 33 24 24 30 27 28 34 50 46 55 52 39 42 36 23 23 29 26 27 30 32
84 84 82 98 100 100 87 85 98 62 60 44 47 46 46 45 43 41 46 46 42 42 55 56 55 33 26 28 33 35 35 48 44 55 52 41 49 34 25 22 24 25 26 30 33
71 89 98 74 94 100 90 97 80 58 44 50 45 51 49 46 45 41 49 40 41 41 46 58 54 31 29 26 27 35 38 30 41 44 47 39 32 24 22 25 29 35 35 33 32
86 100 95 76 93 100 89 94 65 41 38 44 53 50 58 56 51 47 51 41 42 37 31 41 48 32 30 27 29 31 31 38 47 44 47 41 36 29 22 21 27 36 39 35 33
98 98 94 61 99 99 94 86 63 36 34 41 52 58 51 56 52 50 48 38 36 41 32 38 37 38 32 36 39 37 37 40 40 47 43 40 36 28 22 22 25 29 30 30 30
100 98 74 58 98 94 95 65 37 42 36 37 43 47 52 54 57 53 51 41 34 35 39 33 39 52 40 30 31 33 37 37 48 43 54 49 41 21 22 25 24 21 21 23 26
98 97 74 98 98 98 82 70 40 40 45 41 40 38 43 52 51 50 49 38 36 38 41 36 47 51 42 38 34 36 36 35 36 40 49 47 40 23 26 23 22 20 17 18 22
97 99 85 99 83 78 86 72 53 37 43 37 40 40 44 46 40 53 52 38 37 37 30 31 46 44 52 40 36 39 38 35 34 52 39 48 32 23 23 21 21 20 18 18 18
100 99 99 100 99 76 68 64 56 54 42 36 41 40 42 52 46 49 47 44 40 37 45 37 48 45 39 33 37 39 39 37 40 33 42 32 34 26 23 26 22 18 18 19 19
99 99 100 97 93 84 76 67 50 50 41 42 47 44 39 48 40 51 49 45 47 42 46 42 46 44 43 40 37 36 36 42 38 35 37 35 37 26 23 22 21 20 20 19 18
99 98 98 96 96 92 86 69 49 50 44 33 40 42 41 40 32 31 30 31 38 45 47 48 51 51 54 39 43 48 38 39 39 38 34 41 28 24 26 28 23 19 20 20 21

GFSSW_850_rhum_105.txt.gz
RH
89 92 84 67 49 52 56 62 54 61 41 31 27 25 20 15 16 23 26 28 26 24 26 30 35 31 28 26 25 24 40 43 31 29 29 19 18 18 17 17 16 17 16 20 28
86 88 90 76 57 48 53 55 61 68 64 36 31 26 22 16 17 19 18 28 26 25 24 29 30 29 25 25 23 27 45 39 23 15 19 18 17 16 17 17 18 19 17 19 24
94 84 84 85 73 60 48 51 54 63 67 46 33 26 24 17 24 24 27 27 25 28 22 26 28 27 21 22 25 27 35 28 22 19 16 17 17 17 18 20 15 15 15 18 23
87 95 86 93 78 73 55 44 50 54 66 61 37 29 26 20 29 30 30 27 24 28 22 28 29 24 22 25 25 24 23 23 19 19 21 20 17 18 19 15 14 14 15 19 25
89 92 96 90 88 78 68 50 44 54 60 58 44 32 28 27 17 21 27 26 25 28 22 29 23 20 25 23 22 25 22 22 20 18 21 20 19 19 18 14 15 16 17 22 29
100 89 95 99 96 86 78 66 50 53 57 57 39 37 32 38 18 18 22 27 26 28 21 26 22 21 22 22 23 21 21 21 20 19 20 23 22 21 16 14 15 17 18 24 27
99 100 98 96 96 93 86 79 65 54 59 56 42 41 36 22 17 24 31 30 28 28 22 22 24 21 22 25 24 22 25 27 23 23 23 21 25 26 18 17 17 19 20 22 22
99 100 100 98 98 100 97 87 75 59 66 57 46 43 34 22 16 15 36 30 30 28 23 21 25 22 23 24 27 28 30 32 21 23 22 21 29 17 18 19 20 21 22 23 23
98 100 100 100 100 99 100 83 93 95 74 62 50 39 31 22 20 16 28 34 31 28 23 23 24 24 26 33 36 37 36 30 27 24 25 24 27 19 20 20 20 21 23 24 25
86 98 100 100 100 97 100 95 94 98 83 68 51 43 28 22 21 17 17 32 31 34 29 25 26 36 38 36 42 39 34 32 31 26 27 28 29 23 19 20 19 20 22 24 26
94 86 100 100 100 100 100 100 99 99 86 45 37 30 25 25 24 23 18 28 31 29 34 29 35 41 36 32 31 29 32 36 36 27 24 29 28 24 20 24 23 21 21 23 24
89 90 89 100 100 98 100 94 82 42 58 50 35 34 28 30 29 28 27 31 29 36 35 38 42 34 32 34 33 35 39 41 34 26 26 29 29 23 22 21 22 21 20 20 24
82 92 90 92 97 99 100 98 79 45 44 37 42 34 28 32 28 26 32 31 34 41 40 43 36 34 33 38 38 41 41 38 36 30 28 31 34 29 22 24 22 21 19 18 20
83 77 83 95 98 98 98 99 79 58 52 45 43 40 37 28 34 26 29 31 34 39 43 40 34 36 38 39 38 47 37 36 34 30 38 29 40 31 24 23 28 23 23 21 20
76 76 80 88 95 100 100 99 83 62 97 48 43 31 31 28 28 31 28 32 41 40 40 42 42 41 42 38 38 38 34 31 28 32 37 36 39 33 27 24 20 22 22 22 22
85 74 69 81 90 78 97 100 88 96 95 58 46 45 47 34 32 34 35 31 31 40 38 38 34 36 36 35 34 35 32 39 48 41 47 36 36 33 23 19 21 25 24 25 26
98 75 70 82 78 71 100 100 99 98 54 64 57 47 41 46 44 39 41 42 44 52 54 41 37 30 29 34 30 30 40 56 50 51 50 40 43 32 22 22 23 24 23 25 29
84 86 69 73 80 71 99 97 98 88 65 49 50 44 44 43 44 46 44 45 45 43 55 54 56 34 29 33 37 39 42 55 61 47 43 44 47 30 27 23 23 25 26 27 31
90 89 86 68 79 99 100 98 92 78 51 55 47 52 52 46 46 44 49 39 38 45 46 58 54 35 31 28 28 37 41 34 41 45 46 38 30 22 20 24 26 31 33 33 32
98 94 94 60 71 100 100 97 96 55 42 45 56 53 62 55 50 44 51 40 45 40 33 44 52 36 33 28 31 33 32 39 45 44 48 39 36 28 21 22 25 31 36 35 34
100 97 83 58 79 99 98 94 80 62 39 46 54 59 56 57 52 47 50 39 36 44 34 44 41 40 35 39 41 37 38 41 40 44 40 38 34 27 26 25 26 26 27 30 30
100 97 82 82 98 99 98 82 64 56 40 41 47 51 53 55 56 52 52 40 35 36 39 37 42 52 42 34 34 35 34 32 41 46 48 44 39 24 24 26 26 23 21 24 26
100 97 86 94 98 98 85 78 64 54 51 46 44 43 46 52 53 51 49 40 39 39 38 39 49 54 46 39 35 38 39 36 38 41 48 41 36 24 25 26 21 24 21 21 22
98 100 98 80 89 83 80 84 78 50 44 40 40 43 46 48 47 57 53 42 40 40 32 31 49 43 48 44 40 42 41 38 34 47 41 43 32 25 24 24 22 20 17 17 19
97 99 98 97 96 96 76 72 82 58 54 41 45 38 45 56 49 56 52 47 45 43 51 41 51 47 44 37 38 38 39 39 40 33 38 33 38 28 24 23 22 21 19 19 19
98 100 100 98 97 97 96 92 77 58 57 58 47 48 41 52 42 57 52 50 50 50 50 45 48 48 48 45 41 42 42 42 38 37 39 39 38 27 25 22 23 19 19 20 20
95 98 99 98 90 100 95 87 82 57 48 41 39 43 43 41 32 29 31 35 42 46 53 48 54 55 56 46 46 52 43 42 43 40 34 43 30 25 28 31 25 21 20 19 19

GFSSW_850_rhum_108.txt.gz
RH
90 87 86 89 90 63 51 54 56 59 56 62 39 28 25 21 15 16 17 23 27 26 30 34 39 32 30 31 26 24 29 34 31 26 27 20 19 19 18 17 18 20 19 22 27
89 92 87 89 91 88 63 48 51 54 59 63 60 34 27 24 16 13 12 23 28 26 26 30 35 32 27 29 27 26 32 31 18 13 18 18 18 18 16 16 17 19 20 18 26
85 88 96 88 88 93 81 61 49 49 54 58 61 42 29 25 24 25 29 20 28 27 25 30 32 30 25 26 26 25 28 23 17 17 16 16 16 16 16 18 16 15 17 20 24
91 89 89 96 95 89 93 77 63 44 48 52 58 57 33 27 25 29 29 29 27 28 24 31 29 28 25 24 24 24 20 20 19 21 20 17 18 16 16 15 15 15 17 29 30
97 99 85 92 98 100 100 87 77 52 41 55 55 54 37 37 28 20 25 28 28 29 26 31 26 22 25 23 22 22 19 20 20 20 21 22 18 16 18 17 18 15 14 21 33
98 99 99 86 94 97 97 95 85 68 50 54 57 50 42 35 24 18 15 24 28 29 25 30 24 22 19 19 20 20 20 18 19 18 19 19 16 21 15 16 18 16 20 26 33
97 98 100 99 90 96 100 100 89 79 64 59 62 52 48 34 22 18 29 30 30 30 28 23 26 22 23 22 24 21 21 19 18 20 19 21 20 20 15 19 17 18 19 25 32
93 97 100 99 100 99 99 100 94 91 80 65 67 56 48 30 24 21 33 34 34 32 29 21 27 25 24 25 22 22 22 22 17 19 20 20 16 13 16 18 17 17 18 24 26
84 98 99 100 100 99 98 93 98 96 99 80 71 56 39 28 27 23 17 36 34 31 26 24 26 25 25 22 24 25 21 23 20 18 19 19 17 14 21 20 17 17 18 22 25
84 92 93 96 100 100 87 100 98 99 100 90 68 51 38 29 26 21 17 36 37 33 28 26 24 23 22 24 26 24 25 23 23 20 22 22 21 16 16 17 17 16 16 19 23
88 71 92 92 92 100 100 100 100 100 99 61 50 38 27 30 23 23 18 28 32 31 27 25 24 26 21 21 20 22 23 24 20 23 26 25 23 19 18 17 18 16 15 17 21
82 83 76 86 91 95 100 100 90 72 82 80 58 50 33 29 29 32 22 30 30 32 26 30 28 20 19 22 26 25 26 26 23 24 24 24 24 19 16 16 15 15 16 16 20
80 88 80 75 89 82 94 98 99 63 58 63 68 52 42 34 28 28 30 25 28 30 30 28 25 24 25 28 29 27 27 25 28 24 23 24 23 20 16 18 17 18 17 16 18
80 79 75 82 68 78 80 91 100 81 91 64 60 50 44 34 32 29 30 25 28 31 29 29 25 30 28 27 26 29 25 26 28 32 32 23 31 21 19 18 15 16 17 18 19
89 81 80 80 89 79 98 100 100 89 98 51 42 37 37 31 29 30 32 30 26 30 31 32 33 32 32 29 26 28 27 29 30 30 29 28 34 21 19 18 13 14 19 20 22
87 79 87 70 88 93 70 96 100 99 96 63 40 42 38 33 31 35 35 33 28 26 32 27 31 26 26 25 27 26 27 29 31 30 40 28 30 26 17 12 12 14 16 23 27
80 81 87 94 98 94 77 99 99 98 71 64 46 39 33 37 34 29 33 34 33 40 39 33 33 29 29 31 30 27 29 39 40 43 38 28 31 24 15 13 14 14 16 22 30
77 76 86 94 90 84 95 100 97 80 79 43 42 38 38 32 34 33 34 35 28 28 31 40 44 32 27 27 31 31 30 34 44 36 30 34 32 20 16 16 16 18 21 26 33
84 76 92 76 86 81 100 98 86 91 54 44 42 43 39 33 32 34 34 34 30 28 34 38 37 28 26 25 24 33 39 26 33 33 38 27 22 18 13 12 18 19 27 29 35
82 92 88 91 82 94 100 92 85 80 49 38 45 38 44 39 38 36 35 30 31 28 22 31 38 32 29 25 28 27 24 37 35 44 45 30 28 22 15 15 17 17 23 30 39
85 98 92 70 86 98 97 81 56 55 73 42 39 45 36 40 35 38 32 29 26 30 24 26 29 37 32 32 31 31 32 29 27 30 34 33 26 15 16 17 18 18 20 28 36
94 100 82 84 95 74 90 67 50 60 63 62 46 37 37 36 38 37 34 30 26 29 34 26 28 34 36 27 26 25 28 27 35 36 32 32 31 15 17 17 20 19 20 26 34
97 91 71 99 99 94 62 70 56 66 77 67 44 36 37 37 42 35 34 31 31 31 31 28 33 39 39 34 31 33 29 27 27 27 35 37 29 17 17 18 18 20 19 22 24
99 93 98 100 100 85 82 57 59 46 61 78 43 39 39 37 33 40 39 43 35 31 28 29 31 33 37 32 27 35 32 30 30 36 35 32 29 21 19 18 18 18 20 21 22
98 84 85 94 91 83 77 73 60 56 58 70 67 42 33 40 38 40 37 43 43 37 36 29 38 33 29 28 28 28 30 30 32 29 32 27 26 22 19 18 18 19 19 20 21
92 98 97 96 88 94 80 80 81 50 72 82 82 52 36 36 33 43 36 33 36 46 35 33 37 33 38 32 31 33 29 27 28 27 26 25 26 19 18 19 20 20 20 22 23
94 91 100 70 67 97 95 75 88 56 54 65 62 56 53 35 27 28 30 29 34 37 37 37 38 40 44 33 37 46 36 31 29 27 26 32 25 20 20 21 22 21 21 22 21

GFSSW_850_rhum_111.txt.gz
RH
76 79 95 98 97 94 95 80 50 51 56 57 56 60 41 28 22 25 32 26 33 28 30 38 44 36 34 32 31 28 27 29 28 27 24 21 21 20 18 18 20 22 19 34 42
86 81 87 100 99 96 97 97 77 51 48 54 56 60 58 32 26 32 27 13 26 28 29 31 31 30 26 28 27 26 28 25 21 17 21 20 19 19 18 18 17 18 28 41 48
82 86 88 94 100 91 100 97 99 75 50 45 54 56 59 38 39 26 24 14 27 27 34 28 24 26 23 22 24 23 28 23 20 15 14 18 18 17 18 21 18 18 19 36 51
82 85 88 96 96 100 99 100 100 92 73 47 46 53 58 45 33 29 30 30 24 27 39 30 24 26 23 23 21 23 21 21 20 19 17 15 15 15 16 18 16 15 14 26 40
63 82 88 97 100 89 100 99 100 99 84 64 44 56 57 50 39 27 27 26 28 27 35 25 24 22 22 19 19 21 17 18 19 18 18 18 17 16 16 16 15 16 17 17 25
77 78 98 97 99 97 91 94 100 100 91 76 51 59 64 49 36 28 23 18 38 40 32 24 23 18 17 18 18 16 17 17 17 17 17 17 15 14 14 13 14 14 17 17 18
90 84 86 98 100 100 94 91 96 100 97 83 64 66 70 48 33 31 21 42 45 42 29 25 25 21 18 17 17 18 18 15 15 15 15 18 18 15 13 14 13 13 15 15 17
90 87 77 93 98 99 100 95 97 100 99 93 78 81 64 42 40 36 26 38 40 39 31 25 27 23 21 21 20 20 18 21 14 15 18 18 16 9 13 12 13 14 12 13 18
84 83 82 77 98 99 99 99 98 100 100 99 92 82 47 40 39 30 31 32 36 35 32 27 25 23 22 22 20 20 19 19 17 14 14 17 15 12 15 15 13 12 12 13 16
79 79 82 77 83 98 96 98 90 100 99 100 89 64 48 36 31 30 28 26 32 33 29 26 23 22 21 20 25 21 21 17 18 18 18 18 18 14 14 14 13 13 12 13 14
83 78 74 83 77 90 89 97 100 100 100 82 73 52 28 34 29 30 26 25 32 31 27 24 25 25 20 18 16 16 18 19 15 16 24 22 19 16 15 15 15 14 14 12 12
87 85 88 88 81 80 87 94 99 100 96 93 68 54 37 39 29 26 26 26 29 31 23 24 28 18 17 16 18 19 22 21 17 16 24 22 21 18 16 15 14 14 13 12 12
81 81 79 84 86 81 74 75 81 100 97 82 84 66 44 43 30 26 25 23 26 28 25 25 24 18 18 19 21 23 23 22 21 19 19 21 24 19 14 15 15 14 13 13 12
79 69 76 80 82 88 94 100 98 100 98 84 84 82 58 41 34 26 26 21 23 27 25 25 19 22 21 24 23 26 19 21 25 25 29 20 33 21 16 15 14 14 13 14 16
82 66 58 83 99 93 86 95 97 99 98 61 58 57 57 36 29 31 26 20 24 25 24 29 26 27 28 26 21 24 20 21 26 28 27 24 28 21 17 18 15 14 18 17 17
82 70 68 87 97 92 87 76 92 100 96 76 49 49 48 43 28 28 29 26 24 23 23 24 23 23 25 22 22 21 26 27 28 28 35 24 25 23 19 15 10 10 11 12 20
80 75 75 92 98 92 83 95 99 97 84 88 56 44 43 44 32 30 31 34 32 35 35 32 28 25 24 27 26 27 28 37 37 41 36 21 26 23 18 15 13 13 13 14 21
77 76 78 94 94 99 96 99 96 73 79 54 45 42 45 35 34 31 33 36 28 28 31 39 40 30 27 26 32 32 29 33 42 34 28 26 31 21 14 13 13 13 15 16 19
81 90 87 85 100 99 97 98 87 60 64 52 43 49 50 38 31 30 33 32 29 27 35 34 34 23 24 23 23 29 36 23 29 25 31 27 22 16 14 14 11 13 14 18 24
95 98 80 80 99 97 96 90 79 55 67 74 62 43 50 45 38 32 35 28 29 25 23 24 34 27 26 24 23 24 23 35 33 46 46 32 28 25 15 14 14 14 16 21 29
100 91 68 84 98 98 95 76 46 43 51 95 64 44 38 49 40 33 33 28 25 26 23 24 27 36 29 32 32 32 32 28 26 30 37 34 26 15 16 14 16 15 16 21 28
100 89 82 88 98 97 87 56 43 40 40 54 92 78 45 32 39 32 33 28 22 25 30 24 27 34 35 24 23 25 27 26 34 33 29 31 30 14 13 14 16 16 16 20 29
98 70 74 87 98 89 55 49 45 44 44 93 92 67 39 36 38 32 30 24 24 26 30 27 33 38 35 32 28 31 26 25 25 25 30 33 29 15 15 16 15 17 16 18 28
99 80 76 99 98 95 65 51 47 40 42 42 91 79 58 48 31 39 31 36 27 26 26 29 31 34 36 34 27 35 30 26 27 32 32 30 26 20 18 18 17 16 17 17 23
99 79 70 76 74 97 94 93 69 48 42 43 81 92 81 77 42 52 31 40 33 28 33 29 37 30 28 23 24 26 29 28 30 28 31 27 25 21 18 18 17 16 17 18 18
99 87 64 67 56 55 76 71 70 55 52 49 85 81 70 63 54 54 32 36 37 30 32 29 37 32 34 27 27 29 27 27 28 27 27 25 26 18 16 16 16 16 17 19 20
97 93 89 62 54 65 70 83 90 63 57 52 36 52 74 59 36 33 27 28 27 33 35 34 35 36 42 32 32 40 31 27 26 24 24 29 23 19 19 18 18 18 20 19 19